Regional Weather Roundup
Issued by NWS

Home | Current Version | Previous Version | Graphics & Text | Print | Product List | Glossary On
Versions: 1 2 3 4 5 6 7 8 9 10 11 12 13 14 15 16 17 18 19 20 21 22 23 24 25 26 27 28 29 30 31 32 33 34 35 36 37 38 39 40 41 42 43 44 45 46 47 48 49 50
000
ASUS43 KDTX 261901
RWRMI
MICHIGAN HOURLY REGIONAL WEATHER ROUNDUP
NATIONAL WEATHER SERVICE DETROIT/PONTIAC MI
300 PM EDT SAT MAY 26 2018

NOTE: "FAIR" INDICATES FEW OR NO CLOUDS BELOW 12,000 FEET WITH NO
SIGNIFICANT WEATHER AND/OR OBSTRUCTION TO VISIBILITY.

MIZ047>049-052>055-059>063-066>070-074>076-081>083-262000-
SOUTHEAST LOWER MICHIGAN

CITY           SKY/WX    TMP DP  RH WIND       PRES   REMARKS
ADRIAN         FAIR      82  66  58 W7        29.79F
ALMA           FAIR      83  66  55 S7G18     29.76F
ANN ARBOR      FAIR      75  64  68 E8        29.80F
BAD AXE        PTSUNNY   84  61  45 CALM      29.78F
CARO           FAIR      83  63  50 SW10      29.77F
DETROIT CITY   CLOUDY    78  62  57 SE5       29.81S
DETROIT        TSTM      79  62  56 SE3       29.81S
FLINT          FAIR      81  64  56 VRB5      29.79F
GROSSE ILE     FAIR      72  65  79 S3        29.80F
HILLSDALE      CLOUDY    77  66  69 SW5       29.79F
HOWELL         FAIR      79  62  56 SE3       29.80S

CITY           SKY/WX    TMP DP  RH WIND       PRES   REMARKS
JACKSON        PTSUNNY   79  68  69 E7        29.78F
LAMBERTVILLE   PTSUNNY   83  65  54 SE7       29.78F
LANSING        FAIR      82  65  56 SW7       29.78F
LAPEER         FAIR      80  62  53 S5        29.80F
MASON          PTSUNNY   83  62  49 W3        29.79S
MONROE         LGT RAIN  71  69  92 NE5G16    29.79S
MT. CLEMENS    CLOUDY    75  71  88 S3        29.79F
PONTIAC        PTSUNNY   78  66  66 SE6       29.80F
PORT HOPE        N/A     72  62  71 VRB3      29.77S
PORT HURON     CLOUDY    75  63  64 CALM      29.81S
TRI CITIES     PTSUNNY   83  65  54 S6        29.77F
MIDLAND        FAIR      83  64  53 S6        29.75F
TROY           CLOUDY    76  62  62 SW3       29.83F
SAGINAW HB     PTSUNNY   82  61  47 S7        29.76F
$$
MIZ043>046-050>051-056>058-064>065-071>073-077>080-262000-
SOUTHWEST LOWER MICHIGAN

CITY           SKY/WX    TMP DP  RH WIND       PRES   REMARKS
BATTLE CREEK   FAIR      83  64  52 W8        29.79F
BENTON HARBOR  FAIR      80  62  54 VRB6      29.79F
BIG RAPIDS     FAIR      82  62  50 S6        29.75F
COLDWATER      PTSUNNY   85  56  37 W7        29.79S
FREMONT        FAIR      84  65  52 S8        29.76S
HOLLAND        FAIR      78  63  59 W6        29.79S
GRAND RAPIDS   FAIR      82  67  60 SW10      29.77F
IONIA          FAIR      84  64  49 S8        29.76F
KALAMAZOO      FAIR      85  60  42 NW9       29.78F
LUDINGTON      FAIR      68  63  83 SW10      29.76S
MARSHALL       FAIR      84  63  49 W9        29.78F
MOUNT PLEASANT PTSUNNY   84  64  50 S8        29.75F
MUSKEGON       FAIR      72  61  68 SW12      29.78S
SOUTH HAVEN    FAIR      79  61  52 NW6       29.79F
$$
MIZ016>042-262000-
NORTHERN LOWER MICHIGAN

CITY           SKY/WX    TMP DP  RH WIND       PRES   REMARKS
ALPENA         FAIR      76  61  59 E12       29.76F
BEAVER ISLAND  FAIR      76  59  56 W6        29.76S
BELLAIRE       FAIR      84  62  47 SW6       29.72F
CADILLAC       PTSUNNY   83  63  50 SW6       29.76S
CHARLEVOIX     FAIR      69  60  71 NW7       29.78R
FRANKFORT      FAIR      76  64  67 W7        29.75R
GAYLORD        PTSUNNY   82  61  48 CALM      29.75F
GRAYLING       LGT RAIN  81  61  50 CALM      29.74S
HARBOR SPRINGS FAIR      76  60  57 SW5       29.74S
HOUGHTON LAKE  FAIR      85  60  42 VRB6      29.76F
MANISTEE       FAIR      82  65  56 W10       29.73F
OSCODA         CLOUDY    82  59  44 E10       29.76F
PELLSTON       FAIR      83  62  49 E8G17     29.74F
ROGERS CITY    FAIR      67  57  70 E3        29.77F
TRAVERSE CITY  FAIR      80  63  55 N9        29.71F
$$
MIZ007>008-015-262000-
EASTERN UPPER MICHIGAN

CITY           SKY/WX    TMP DP  RH WIND       PRES   REMARKS
KINROSS        FAIR      78  62  57 SE9G20    29.77F
MACKINAC ISLAN FAIR      62  57  84 E13G21    29.77S
NEWBERRY       FAIR      78  62  56 S10G17    29.75S
S. S. MARIE    FAIR      76  65  68 E8        29.76S
MUNISING         N/A     56  55  97 CALM      29.69F
$$
MIZ004>006-011>014-085-262000-
CENTRAL UPPER MICHIGAN

CITY           SKY/WX    TMP DP  RH WIND       PRES   REMARKS
MANISTIQUE     FAIR      64  63  94 S7        29.76S
ESCANABA       FAIR      65  57  75 SE9       29.72F
MENOMINEE      FAIR      81  64  56 E9        29.71F
SAWYER-GWINN   CLOUDY    68  63  83 NW7       29.72F
$$
MIZ001>003-009>011-084-262000-
WESTERN UPPER MICHIGAN

CITY           SKY/WX    TMP DP  RH WIND       PRES   REMARKS
IRON MOUNTAIN  FAIR      88  62  41 S10       29.67F
HOUGHTON       FAIR      82  59  45 VRB3      29.66F
COPPER HARBOR    N/A     53  48  83 NE3       29.69R
IRONWOOD       FAIR      87  54  32 W16       29.68S
$$

ABBREVIATIONS USED IN REMARKS
   TC - TEMPERATURE IN CELSIUS
  WCI - WIND CHILL INDEX
   HX - HEAT INDEX
  VSB - VISIBILITY





USA.gov is the U.S. government's official web portal to all federal, state and local government web resources and services.